Miscellaneous Local Product
Issued by NWS North Platte, NE

Home | Current Version | Previous Version | Text Only | Print | Product List | Glossary On
Versions: 1 2 3 4 5 6 7 8 9 10 11 12 13 14 15 16 17 18 19 20 21 22 23 24 25 26 27 28 29 30 31 32 33 34 35 36 37 38 39 40 41 42 43 44 45 46 47 48 49 50
000
AXUS43 KLBF 261010
MISLBF


WESTERN AND NORTH CENTRAL NEBRASKA HOURLY WEATHER ROUNDUP
NATIONAL WEATHER SERVICE NORTH PLATTE NE
500 AM CDT FRI AUG 26 2016

NOTE: "FAIR" INDICATES FEW OR NO CLOUDS BELOW 12,000 FEET WITH NO
SIGNIFICANT WEATHER AND/OR OBSTRUCTIONS TO VISIBILITY.

NOTE: STATIONS NOT REPORTING VARIABLES SUCH AS SKY/WEATHER OR
PRESSURE ARE PROVIDED BY RAWS AND APRS NETWORKS AND ARE NOT UNDER
NATIONAL WEATHER SERVICE QUALITY CONTROL.

...OBSERVATIONS IN AND NEAR THE EASTERN PANHANDLE OF NEBRASKA...

CITY           SKY/WX    TMP DP  RH WIND       PRES   REMARKS
PINE RIDGE     CLOUDY    56  48  74 E7        30.17F
CHADRON        CLOUDY    56  47  71 NE8       30.15F
ALLIANCE       FAIR      52  48  86 SE8       30.16F
SIDNEY         MOCLDY    57  52  83 S10       30.18F
CRESCENT LAKE    N/A     55  51  85 SE5         N/A
$$

...OBSERVATIONS IN NORTHERN NEBRASKA AND FAR SOUTHERN SOUTH DAKOTA...

CITY           SKY/WX    TMP DP  RH WIND       PRES   REMARKS
WINNER         MOCLDY    54  49  83 SE3       30.18S
VALENTINE      FAIR      46  43  89 CALM      30.19F
THEDFORD       FAIR      49  48  95 CALM      30.19F
AINSWORTH      FAIR      48  47  97 CALM      30.18F
O`NEILL        FAIR      52  49  90 CALM      30.18S
ORD            FAIR      52  49  89 S5        30.16F
BROKEN BOW     FAIR      49  48  97 CALM      30.17F
VALENTINE NWR    N/A     49  46  90 S6          N/A
BUTTE            N/A     57  51  82 CALM        N/A
HALSEY           N/A     52  48  87 CALM        N/A
EWING            N/A     54  51  90 CALM        N/A
$$

...OBSERVATIONS IN SOUTHWEST NEBRASKA AND FAR NORTHEAST COLORADO...

CITY           SKY/WX    TMP DP  RH WIND       PRES   REMARKS
WRAY           CLOUDY    55  48  76 SE5       30.19S
IMPERIAL       FAIR      54  50  86 S3        30.19R
OGALLALA       FAIR      55  50  83 SE3       30.18S
NORTH PLATTE   FAIR      52  50  93 E5        30.18F
MCCOOK         FAIR      55  52  89 N3        30.17R
LEXINGTON      FAIR      54  52  95 CALM      30.17F
STAPLETON        N/A     51  49  95 CALM        N/A
GOTHENBURG       N/A     56  51  83 CALM        N/A
CALLAWAY         N/A     50  49  97 SE6         N/A
$$

...OBSERVATIONS IN CENTRAL LINCOLN COUNTY AREA...

CITY           SKY/WX    TMP DP  RH WIND       PRES   REMARKS
N.P. AIRPORT   FAIR      52  50  93 E5        30.18F
N.P. DOWNTOWN    N/A     56  53  91 CALM        N/A
N.P. SOUTHEAST   N/A     54  52  92 CALM        N/A
N.P. HILLCREST   N/A     54  52  94 SE6         N/A
$$

...SOME OBSERVATIONS FROM AROUND THE REGION...

CITY           SKY/WX    TMP DP  RH WIND       PRES   REMARKS
DENVER         CLOUDY    55  47  74 S6        30.15F
LARAMIE        FAIR      50  40  68 S3        30.22F
CHEYENNE       CLOUDY    51  46  83 SE8       30.19F
SCOTTSBLUFF    CLOUDY    56  49  77 SE8       30.15F
RAPID CITY     LGT RAIN  53  51  93 S5        30.18F
BISMARCK       FAIR      50  44  80 NW3       30.12F
PIERRE         MOCLDY    48  46  93 CALM      30.16R
SIOUX FALLS    FAIR      52  51  97 CALM      30.17S
OMAHA          MOCLDY    59  56  89 N3        30.15R
GRAND ISLAND   FAIR      55  53  93 N5        30.17R
KANSAS CITY    RAIN      68  65  90 E7        30.10R
WICHITA        LGT RAIN  70  68  93 NW14      30.08S
OKLAHOMA CITY  MOCLDY    70  66  87 NE5       30.07F
DALLAS         MOCLDY    78  72  81 S7        30.01F
AMARILLO       CLOUDY    61  59  93 NW5       30.16S
DODGE CITY     CLOUDY    64  63  96 E6        30.13S
HAYS           CLOUDY    63  54  72 CALM      30.14R
GOODLAND       MOCLDY    54  52  93 SE3       30.18S
$$




USA.gov is the U.S. government's official web portal to all federal, state and local government web resources and services.